Regional Weather Roundup
Issued by NWS

Home | Current Version | Previous Version | Graphics & Text | Print | Product List | Glossary On
Versions: 1 2 3 4 5 6 7 8 9 10 11 12 13 14 15 16 17 18 19 20 21 22 23 24 25 26 27 28 29 30 31 32 33 34 35 36 37 38 39 40 41 42 43 44 45 46 47 48 49 50
000
ASUS43 KFSD 011102
RWRSD

WEATHER ROUNDUP FOR SOUTH DAKOTA
NATIONAL WEATHER SERVICE SIOUX FALLS SD
600 AM CDT WED JUL 01 2015

NOTE: "FAIR" INDICATES FEW OR NO CLOUDS BELOW 12,000 FEET WITH NO
SIGNIFICANT WEATHER AND/OR OBSTRUCTIONS TO VISIBILITY.


SDZ001>005-009-010-012>017-011200-
NORTHWEST AND NORTH CENTRAL SOUTH DAKOTA

CITY           SKY/WX    TMP DP  RH WIND       PRES   REMARKS
BUFFALO          N/A     61  60  97 N5        29.87R
FAITH            N/A     59  57  93 NW5       29.90R
MOBRIDGE       CLOUDY    66  64  93 SE5       29.86R
$$

SDZ012>016-024>037-041>051-057-063-072>074-011200-
SOUTHWEST AND SOUTH CENTRAL SOUTH DAKOTA

CITY           SKY/WX    TMP DP  RH WIND       PRES   REMARKS
RAPID CTY ARPT CLEAR     66  58  75 NW12      29.92S
PIERRE         CLEAR     62  62 100 E7        29.85S FOG
CUSTER         CLEAR     60  50  69 NW5       30.10S
ELLSWORTH AFB  CLEAR     64  59  83 NW8       29.92R
PHILIP         CLEAR     64  63  96 NW3       29.86R
PINE RIDGE     CLEAR     63  59  87 CALM      29.94R
WINNER         LGT RAIN  66  60  81 SW3       29.89R
$$

SDZ004>011-016>023-039-040-011200-
NORTHEAST SOUTH DAKOTA

CITY           SKY/WX    TMP DP  RH WIND       PRES   REMARKS
ABERDEEN       MOCLDY    64  63  96 E3        29.89S FOG
WATERTOWN      LGT RAIN  63  60  90 E5        29.91S FOG
BROOKINGS      CLOUDY    63  59  88 E7        29.92F
SISSETON         N/A     63  62  97 S3        29.91S
$$

SDZ017-020-022-023-036>040-048>070-011200-
SOUTHEAST SOUTH DAKOTA

CITY           SKY/WX    TMP DP  RH WIND       PRES   REMARKS
SIOUX FALLS    RAIN      63  61  93 E6        29.88F FOG
HURON          LGT RAIN  65  64  97 E5        29.89R FOG
CHAMBERLAIN    PTCLDY    64  62  92 E3        29.88F
MITCHELL       CLOUDY    66  65  96 E6        29.88R FOG
YANKTON        MOCLDY   N/A N/A N/A NW24G38   29.93R THUNDER
$$

ABBREVIATIONS USED IN REMARKS
   TC - TEMPERATURE IN CELSIUS
  WCI - WIND CHILL INDEX
   HX - HEAT INDEX
  VSB - VISIBILITY



USA.gov is the U.S. government's official web portal to all federal, state and local government web resources and services.